"Pseudo-MPEC" for C14YU15

Created 2025 Jul 7 22:35:04 UT using Find_Orb

Click here for an explanation of pseudo-MPECs

 
 Astrometry: 
     C14YU15* C2025 07 06.39479922 38 49.978-06 04 47.39   ~76AZ 22.19GVNEOCPV00
     C14YU15  C2025 07 06.40040122 38 50.464-06 05 00.56   ~76AZ 21.61GVNEOCPV00
     C14YU15  C2025 07 06.40599122 38 50.975-06 05 13.31   ~76AZ 21.70GVNEOCPV00
     C14YU15  C2025 07 06.41158322 38 51.468-06 05 26.16   ~76AZ 21.79GVNEOCPV00
     C14YU15  C2025 07 06.44383022 38 54.310-06 06 39.40   ~76Bo       VNEOCP291
     C14YU15  C2025 07 06.44760822 38 54.419-06 06 49.59   ~76BK 21.0 GWNEOCPH01
     C14YU15  C2025 07 06.45046922 38 54.675-06 06 56.22   ~76BK 21.2 GWNEOCPH01
     C14YU15  C2025 07 06.45208022 38 55.040-06 06 58.10   ~76Bo 21.8 RVNEOCP291
     C14YU15  C2025 07 06.45392222 38 54.984-06 07 04.05   ~76BK 21.1 GWNEOCPH01
     C14YU15  C2025 07 06.45739522 38 55.284-06 07 11.90   ~76BK 21.4 GWNEOCPH01
     C14YU15  C2025 07 06.46032022 38 55.760-06 07 16.80   ~76Bo 21.6 RVNEOCP291
     C14YU15  C2025 07 06.58363822 39 08.773-06 11 48.43   ~76JK 22.00wXNEOCPF52
     C14YU15  C2025 07 06.59519222 39 09.733-06 12 14.76   ~76JK 21.26wXNEOCPF52
     C14YU15  C2025 07 06.60677822 39 10.723-06 12 41.01   ~76JK 21.56wXNEOCPF52
     C14YU15 |C2025 07 07.38519022 40 29.590-06 41 06.80   ~77AZ 21.5 GVNEOCP807
     C14YU15 |C2025 07 07.39766022 40 30.600-06 41 34.30   ~77AZ 21.0 GVNEOCP807
     C14YU15 |C2025 07 07.41012022 40 31.600-06 42 02.20   ~77AZ 21.6 GVNEOCP807
     C14YU15  C2025 07 07.45940022 40 37.580-06 44 42.90   ~77BZ 21.5 RVNEOCP291
     C14YU15  C2025 07 07.46164022 40 37.740-06 44 48.10   ~77BZ 21.8 RVNEOCP291
     C14YU15  C2025 07 07.46389022 40 37.950-06 44 52.70   ~77BZ 21.4 RVNEOCP291

Station data:
(291) LPL/Spacewatch II  (N31.961669 W111.599905)  US/Arizona.  Observers J.
   V. Scotti, R. S. McMillan. 1.8-m f/2.7 reflector + CCD.
(807) Cerro Tololo Observatory, La Serena  (S30.169133 W70.805900)  Chile.
   Observer R. Holmes. 0.61-m f/6.5 astrograph + CCD.
(F52) Pan-STARRS 2, Haleakala  (N20.707382 W156.255910)  US/Hawaii.
   Observers J. Bulger, T. Dukes, T. Lowe, A. Schultz, M. Willman. Measurers
   K. Chambers, S. Chastel, T. de Boer, L. Denneau, J. Fairlamb, H.
   Flewelling, M. Huber, C.-C. Lin, E. Magnier, Y. Ramanjooloo, R. Wainscoat,
   R. Weryk. 1.8-m Ritchey-Chrétien + CCD.
(H01) Magdalena Ridge Observatory, Socorro  (N33.984833 W107.189333)  US/New
   Mexico.  Observers W. H. Ryan, E. V. Ryan. Measurer W. H. Ryan. 2.4-m
   f/8.9 reflector + CCD.
(V00) Kitt Peak-Bok  (N31.963125 W111.600190)  US/Arizona.  Observers T. A.
   Pruyne, B. M. Africano, E. J. Christensen, G. A. Farneth, D. C. Fuls, A.
   R. Gibbs, A. D. Grauer, H. Gröller, J. A. Johnson, R. A. Kowalski, S. M.
   Larson, G. J. Leonard, D. Rankin, R. L. Seaman, F. C. Shelly, K. W.
   Wierzchoś. 2.25-m reflector + 4x4K mosaic CCD.

Orbital elements:  C14YU15
   Perihelion 2025 Jun 6.28324 +/- 0.156 TT =  6:47:52 (JD 2460832.78324)
Epoch 2025 Jul  7.0 TT = JDT 2460863.5   Earth MOID: 0.0740   Ma: 0.0437
M   9.03528351 +/- 0.27             (J2000 ecliptic)             AutoNEOCP
n   0.29414836 +/- 0.00745          Peri.  144.71770 +/- 0.054
a   2.23919416 +/- 0.0378           Node   114.61354 +/- 0.037
e   0.5238207 +/- 0.00825           Incl.    6.40817 +/- 0.051
P   3.35072                H 23.53  G  0.15   U  9.5
q 1.06625772 +/- 0.00074    Q 3.41213060 +/- 0.0761
From 20 observations 2025 July 6-7 (25.7 hr); mean residual 0".14
Residuals in arcseconds: 
250706 V00  .10+  .23+    250706 291  .01-  .19+    250707 807  .17+  .04-    
250706 V00  .14-  .13-    250706 H01  .06+  .17-    250707 807  .16+  .14+    
250706 V00  .04+  .11-    250706 H01  .03-  .13-    250707 807  .05-  .14-    
250706 V00  .03-  .18-    250706 291  .04-  .23+    250707 291  .07-  .02+    
250706 291  .10-  .11+    250706 F52  .16+  .12+    250707 291  .36-  .20-    
250706 H01  .08-  .06-    250706 F52  .13-  .03-    250707 291  .08+  .20+    
250706 H01  .02-  .19-    250706 F52  .00   .06-    

Ephemerides (geocentric):
Date (UTC) HH   RA             Dec           delta  r     elong  mag " sig PA
---- --------  ------------   ------------  ------ ------ -----  --- --------
2025 07 07 23  22 41 25.576   -07 02 35.38  .17766 1.1313 126.5 21.8 .335 149
2025 07 08 00  22 41 29.505   -07 04 06.99  .17778 1.1315 126.5 21.8 .374 148
2025 07 08 01  22 41 33.421   -07 05 38.52  .17791 1.1317 126.6 21.8 .414 148
2025 07 08 02  22 41 37.324   -07 07 09.96  .17803 1.1318 126.6 21.8 .457 147
2025 07 08 03  22 41 41.214   -07 08 41.33  .17816 1.1320 126.6 21.8 .501 147
2025 07 08 04  22 41 45.092   -07 10 12.61  .17828 1.1321 126.7 21.8 .546 146
2025 07 08 05  22 41 48.957   -07 11 43.81  .17841 1.1323 126.7 21.8 .594 146
2025 07 08 06  22 41 52.809   -07 13 14.92  .17853 1.1325 126.7 21.8 .643 146
2025 07 08 07  22 41 56.649   -07 14 45.96  .17866 1.1326 126.8 21.8 .694 146
2025 07 08 08  22 42 00.476   -07 16 16.91  .17879 1.1328 126.8 21.8 .747 145
2025 07 08 09  22 42 04.290   -07 17 47.78  .17891 1.1330 126.8 21.8 .802 145
2025 07 08 10  22 42 08.091   -07 19 18.57  .17904 1.1331 126.9 21.8 .858 145
2025 07 08 11  22 42 11.881   -07 20 49.28  .17916 1.1333 126.9 21.8 .916 145
2025 07 08 12  22 42 15.657   -07 22 19.90  .17929 1.1335 127.0 21.8 .976 145
2025 07 08 13  22 42 19.421   -07 23 50.45  .17941 1.1336 127.0 21.8 1.04 145
2025 07 08 14  22 42 23.172   -07 25 20.91  .17954 1.1338 127.0 21.8 1.10 144
2025 07 08 15  22 42 26.911   -07 26 51.29  .17966 1.1340 127.1 21.8 1.16 144
2025 07 08 16  22 42 30.637   -07 28 21.59  .17979 1.1341 127.1 21.8 1.23 144
2025 07 08 17  22 42 34.351   -07 29 51.81  .17992 1.1343 127.1 21.8 1.30 144
2025 07 08 18  22 42 38.052   -07 31 21.95  .18004 1.1345 127.2 21.8 1.37 144
2025 07 08 19  22 42 41.741   -07 32 52.01  .18017 1.1346 127.2 21.8 1.44 144
2025 07 08 20  22 42 45.417   -07 34 21.99  .18030 1.1348 127.2 21.8 1.51 144
2025 07 08 21  22 42 49.081   -07 35 51.89  .18042 1.1350 127.3 21.8 1.59 144
2025 07 08 22  22 42 52.732   -07 37 21.70  .18055 1.1351 127.3 21.8 1.66 144
2025 07 08 23  22 42 56.371   -07 38 51.44  .18067 1.1353 127.3 21.8 1.74 144
2025 07 09 00  22 42 59.998   -07 40 21.09  .18080 1.1355 127.4 21.8 1.82 144
2025 07 09 01  22 43 03.612   -07 41 50.67  .18093 1.1356 127.4 21.8 1.90 144
2025 07 09 02  22 43 07.214   -07 43 20.17  .18105 1.1358 127.4 21.8 1.98 144
2025 07 09 03  22 43 10.803   -07 44 49.58  .18118 1.1360 127.5 21.8 2.07 144
2025 07 09 04  22 43 14.380   -07 46 18.92  .18131 1.1361 127.5 21.8 2.15 144
2025 07 09 05  22 43 17.945   -07 47 48.17  .18143 1.1363 127.6 21.8 2.24 144
2025 07 09 06  22 43 21.498   -07 49 17.35  .18156 1.1365 127.6 21.8 2.33 144
2025 07 09 07  22 43 25.038   -07 50 46.45  .18169 1.1366 127.6 21.8 2.42 144
2025 07 09 08  22 43 28.566   -07 52 15.46  .18181 1.1368 127.7 21.8 2.51 144
2025 07 09 09  22 43 32.082   -07 53 44.40  .18194 1.1370 127.7 21.8 2.61 144
2025 07 09 10  22 43 35.585   -07 55 13.26  .18207 1.1371 127.7 21.8 2.70 144
2025 07 09 11  22 43 39.077   -07 56 42.04  .18220 1.1373 127.8 21.8 2.80 144
2025 07 09 12  22 43 42.556   -07 58 10.74  .18232 1.1375 127.8 21.8 2.89 144
2025 07 09 13  22 43 46.022   -07 59 39.36  .18245 1.1377 127.8 21.8 2.99 144
2025 07 09 14  22 43 49.477   -08 01 07.90  .18258 1.1378 127.9 21.8 3.10 144
2025 07 09 15  22 43 52.920   -08 02 36.37  .18271 1.1380 127.9 21.8 3.20 144
2025 07 09 16  22 43 56.350   -08 04 04.75  .18283 1.1382 127.9 21.8 3.30 144
2025 07 09 17  22 43 59.768   -08 05 33.06  .18296 1.1383 128.0 21.8 3.41 144
2025 07 09 18  22 44 03.174   -08 07 01.29  .18309 1.1385 128.0 21.8 3.51 144
2025 07 09 19  22 44 06.569   -08 08 29.43  .18322 1.1387 128.1 21.8 3.62 144
2025 07 09 20  22 44 09.951   -08 09 57.51  .18334 1.1388 128.1 21.8 3.73 144
2025 07 09 21  22 44 13.320   -08 11 25.50  .18347 1.1390 128.1 21.8 3.84 144
2025 07 09 22  22 44 16.678   -08 12 53.41  .18360 1.1392 128.2 21.8 3.96 144